Time,TemperatureF,DewpointF,PressureIn,WindDirection,WindDirectionDegrees,WindSpeedMPH,WindSpeedGustMPH,Humidity,HourlyPrecipIn,Conditions,Clouds,dailyrainin,SoftwareType,DateUTC
2013-01-15 00:02:00,-21.1,-37.8,30.79,West,270,1.0,4.0,40,0.00,,,0.00,meteohub,2013-01-15 07:02:00,
2013-01-15 00:07:00,-21.1,-37.8,30.79,NE,45,1.0,4.0,40,0.00,,,0.00,meteohub,2013-01-15 07:07:00,
2013-01-15 00:12:00,-21.3,-38.0,30.79,East,90,3.0,4.0,40,0.00,,,0.00,meteohub,2013-01-15 07:12:00,
2013-01-15 00:17:00,-21.3,-38.0,30.79,East,90,2.0,4.0,40,0.00,,,0.00,meteohub,2013-01-15 07:17:00,
2013-01-15 00:23:00,-21.3,-38.0,30.79,SE,135,2.0,4.0,40,0.00,,,0.00,meteohub,2013-01-15 07:23:00,
2013-01-15 00:28:00,-21.8,-38.6,30.79,SE,135,2.0,4.0,40,0.00,,,0.00,meteohub,2013-01-15 07:28:00,
2013-01-15 00:33:00,-22.0,-38.7,30.79,SE,135,3.0,3.0,40,0.00,,,0.00,meteohub,2013-01-15 07:33:00,
2013-01-15 00:38:00,-21.6,-38.4,30.79,East,90,4.0,4.0,40,0.00,,,0.00,meteohub,2013-01-15 07:38:00,
2013-01-15 00:43:00,-21.5,-38.2,30.80,SE,135,2.0,4.0,40,0.00,,,0.00,meteohub,2013-01-15 07:43:00,
2013-01-15 00:48:00,-21.5,-38.2,30.80,East,90,2.0,4.0,40,0.00,,,0.00,meteohub,2013-01-15 07:48:00,
2013-01-15 00:53:00,-21.5,-38.2,30.80,NE,45,2.0,4.0,40,0.00,,,0.00,meteohub,2013-01-15 07:53:00,
2013-01-15 00:58:00,-21.5,-38.2,30.81,NE,45,4.0,4.0,40,0.00,,,0.00,meteohub,2013-01-15 07:58:00,
2013-01-15 01:03:00,-21.5,-38.2,30.80,NE,45,2.0,4.0,40,0.00,,,0.00,meteohub,2013-01-15 08:03:00,
2013-01-15 01:08:00,-22.0,-38.7,30.80,East,90,2.0,4.0,40,0.00,,,0.00,meteohub,2013-01-15 08:08:00,
2013-01-15 01:13:00,-22.0,-38.7,30.81,East,90,3.0,4.0,40,0.00,,,0.00,meteohub,2013-01-15 08:13:00,
2013-01-15 01:18:00,-22.0,-38.7,30.81,East,90,2.0,3.0,40,0.00,,,0.00,meteohub,2013-01-15 08:18:00,
2013-01-15 01:23:00,-21.5,-38.2,30.81,East,90,3.0,4.0,40,0.00,,,0.00,meteohub,2013-01-15 08:23:00,
2013-01-15 01:28:00,-21.5,-38.2,30.82,North,0,2.0,4.0,40,0.00,,,0.00,meteohub,2013-01-15 08:28:00,
2013-01-15 01:33:00,-21.8,-38.6,30.82,East,90,2.0,4.0,40,0.00,,,0.00,meteohub,2013-01-15 08:33:00,
2013-01-15 01:38:00,-22.2,-38.4,30.82,East,90,2.0,3.0,41,0.00,,,0.00,meteohub,2013-01-15 08:38:00,
2013-01-15 01:43:00,-22.5,-39.1,30.82,East,90,3.0,3.0,40,0.00,,,0.00,meteohub,2013-01-15 08:43:00,
2013-01-15 01:48:00,-22.2,-38.4,30.82,East,90,2.0,3.0,41,0.00,,,0.00,meteohub,2013-01-15 08:48:00,
2013-01-15 01:53:00,-22.2,-38.4,30.82,SE,135,3.0,3.0,41,0.00,,,0.00,meteohub,2013-01-15 08:53:00,
2013-01-15 01:58:00,-22.0,-38.7,30.82,East,90,4.0,4.0,40,0.00,,,0.00,meteohub,2013-01-15 08:58:00,
2013-01-15 02:03:00,-22.2,-38.4,30.83,South,180,3.0,4.0,41,0.00,,,0.00,meteohub,2013-01-15 09:03:00,
2013-01-15 02:08:00,-22.5,-39.1,30.83,East,90,2.0,4.0,40,0.00,,,0.00,meteohub,2013-01-15 09:08:00,
2013-01-15 02:13:00,-22.7,-39.3,30.83,East,90,2.0,4.0,40,0.00,,,0.00,meteohub,2013-01-15 09:13:00,
2013-01-15 02:18:00,-23.1,-40.0,30.83,East,90,2.0,4.0,39,0.00,,,0.00,meteohub,2013-01-15 09:18:00,
2013-01-15 02:23:00,-23.3,-40.2,30.84,North,0,2.0,3.0,39,0.00,,,0.00,meteohub,2013-01-15 09:23:00,
2013-01-15 02:28:00,-23.4,-40.4,30.84,East,90,2.0,3.0,39,0.00,,,0.00,meteohub,2013-01-15 09:28:00,
2013-01-15 02:33:00,-23.3,-40.2,30.83,East,90,3.0,3.0,39,0.00,,,0.00,meteohub,2013-01-15 09:33:00,
2013-01-15 02:38:00,-22.9,-39.5,30.83,East,90,2.0,3.0,40,0.00,,,0.00,meteohub,2013-01-15 09:38:00,
2013-01-15 02:43:00,-23.1,-40.0,30.83,East,90,2.0,4.0,39,0.00,,,0.00,meteohub,2013-01-15 09:43:00,
2013-01-15 02:48:00,-23.1,-40.0,30.83,East,90,4.0,4.0,39,0.00,,,0.00,meteohub,2013-01-15 09:48:00,
2013-01-15 02:53:00,-23.3,-40.2,30.83,East,90,4.0,4.0,39,0.00,,,0.00,meteohub,2013-01-15 09:53:00,
2013-01-15 02:58:00,-23.4,-40.4,30.83,East,90,2.0,4.0,39,0.00,,,0.00,meteohub,2013-01-15 09:58:00,
2013-01-15 03:03:00,-23.6,-40.5,30.83,NE,45,2.0,4.0,39,0.00,,,0.00,meteohub,2013-01-15 10:03:00,
2013-01-15 03:08:00,-24.2,-41.1,30.84,East,90,2.0,4.0,39,0.00,,,0.00,meteohub,2013-01-15 10:08:00,
2013-01-15 03:14:00,-24.0,-40.9,30.83,East,90,4.0,4.0,39,0.00,,,0.00,meteohub,2013-01-15 10:14:00,
2013-01-15 03:19:00,-23.8,-41.3,30.84,East,90,4.0,4.0,38,0.00,,,0.00,meteohub,2013-01-15 10:19:00,
2013-01-15 03:24:00,-23.3,-40.2,30.83,East,90,3.0,4.0,39,0.00,,,0.00,meteohub,2013-01-15 10:24:00,
2013-01-15 03:29:00,-23.3,-40.2,30.84,NW,315,2.0,4.0,39,0.00,,,0.00,meteohub,2013-01-15 10:29:00,
2013-01-15 03:34:00,-23.8,-41.3,30.84,NW,315,1.0,4.0,38,0.00,,,0.00,meteohub,2013-01-15 10:34:00,
2013-01-15 03:39:00,-24.2,-41.1,30.84,SE,135,1.0,4.0,39,0.00,,,0.00,meteohub,2013-01-15 10:39:00,
2013-01-15 03:44:00,-24.5,-41.8,30.84,NE,45,2.0,4.0,38,0.00,,,0.00,meteohub,2013-01-15 10:44:00,
2013-01-15 03:49:00,-24.2,-41.1,30.84,NE,45,3.0,3.0,39,0.00,,,0.00,meteohub,2013-01-15 10:49:00,
2013-01-15 03:54:00,-23.8,-41.3,30.84,NE,45,2.0,3.0,38,0.00,,,0.00,meteohub,2013-01-15 10:54:00,
2013-01-15 03:59:00,-23.6,-41.1,30.84,ENE,68,2.0,3.0,38,0.00,,,0.00,meteohub,2013-01-15 10:59:00,
2013-01-15 04:04:00,-23.3,-40.7,30.85,ENE,68,1.0,3.0,38,0.00,,,0.00,meteohub,2013-01-15 11:04:00,
2013-01-15 04:09:00,-23.3,-40.2,30.85,ENE,68,1.0,2.0,39,0.00,,,0.00,meteohub,2013-01-15 11:09:00,
2013-01-15 04:14:00,-22.7,-39.8,30.85,SE,135,2.0,2.0,39,0.00,,,0.00,meteohub,2013-01-15 11:14:00,
2013-01-15 04:19:00,-22.5,-39.6,30.85,East,90,2.0,2.0,39,0.00,,,0.00,meteohub,2013-01-15 11:19:00,
2013-01-15 04:24:00,-22.0,-39.1,30.85,East,90,2.0,2.0,39,0.00,,,0.00,meteohub,2013-01-15 11:24:00,
2013-01-15 04:29:00,-21.8,-38.6,30.84,East,90,2.0,2.0,40,0.00,,,0.00,meteohub,2013-01-15 11:29:00,
2013-01-15 04:34:00,-21.6,-38.4,30.85,East,90,2.0,2.0,40,0.00,,,0.00,meteohub,2013-01-15 11:34:00,
2013-01-15 04:39:00,-21.5,-38.2,30.85,East,90,2.0,3.0,40,0.00,,,0.00,meteohub,2013-01-15 11:39:00,
2013-01-15 04:44:00,-21.5,-38.2,30.84,East,90,3.0,3.0,40,0.00,,,0.00,meteohub,2013-01-15 11:44:00,
2013-01-15 04:49:00,-21.5,-38.2,30.85,East,90,1.0,3.0,40,0.00,,,0.00,meteohub,2013-01-15 11:49:00,
2013-01-15 04:54:00,-21.5,-38.2,30.85,East,90,2.0,4.0,40,0.00,,,0.00,meteohub,2013-01-15 11:54:00,
2013-01-15 04:59:00,-21.5,-38.2,30.85,NE,45,2.0,4.0,40,0.00,,,0.00,meteohub,2013-01-15 11:59:00,
2013-01-15 05:04:00,-21.5,-38.2,30.85,NE,45,2.0,4.0,40,0.00,,,0.00,meteohub,2013-01-15 12:04:00,
2013-01-15 05:09:00,-21.1,-37.8,30.85,NE,45,2.0,2.0,40,0.00,,,0.00,meteohub,2013-01-15 12:09:00,
2013-01-15 05:14:00,-21.1,-37.8,30.85,North,0,2.0,2.0,40,0.00,,,0.00,meteohub,2013-01-15 12:14:00,
2013-01-15 05:19:00,-20.9,-37.7,30.85,North,0,1.0,2.0,40,0.00,,,0.00,meteohub,2013-01-15 12:19:00,
2013-01-15 05:24:00,-20.7,-37.5,30.86,North,0,1.0,2.0,40,0.00,,,0.00,meteohub,2013-01-15 12:24:00,
2013-01-15 05:29:00,-20.4,-37.1,30.86,North,0,1.0,2.0,40,0.00,,,0.00,meteohub,2013-01-15 12:29:00,
2013-01-15 05:34:00,-20.2,-37.5,30.85,East,90,2.0,2.0,39,0.00,,,0.00,meteohub,2013-01-15 12:34:00,
2013-01-15 05:39:00,-20.0,-37.3,30.86,East,90,2.0,2.0,39,0.00,,,0.00,meteohub,2013-01-15 12:39:00,
2013-01-15 05:44:00,-19.8,-37.1,30.86,East,90,2.0,2.0,39,0.00,,,0.00,meteohub,2013-01-15 12:44:00,
2013-01-15 05:49:00,-19.5,-36.8,30.86,SE,135,2.0,2.0,39,0.00,,,0.00,meteohub,2013-01-15 12:49:00,
2013-01-15 05:54:00,-19.1,-36.4,30.86,East,90,1.0,3.0,39,0.00,,,0.00,meteohub,2013-01-15 12:54:00,
2013-01-15 05:59:00,-19.1,-36.4,30.87,South,180,1.0,3.0,39,0.00,,,0.00,meteohub,2013-01-15 12:59:00,
2013-01-15 06:04:00,-19.1,-36.4,30.86,East,90,2.0,2.0,39,0.00,,,0.00,meteohub,2013-01-15 13:04:00,
2013-01-15 06:09:00,-19.3,-36.6,30.87,NW,315,1.0,2.0,39,0.00,,,0.00,meteohub,2013-01-15 13:09:00,
2013-01-15 06:14:00,-19.1,-36.4,30.86,West,270,0.0,2.0,39,0.00,,,0.00,meteohub,2013-01-15 13:14:00,
2013-01-15 06:19:00,-19.1,-36.4,30.86,West,270,2.0,2.0,39,0.00,,,0.00,meteohub,2013-01-15 13:19:00,
2013-01-15 06:24:00,-18.9,-36.4,30.87,West,270,0.0,2.0,39,0.00,,,0.00,meteohub,2013-01-15 13:24:00,
2013-01-15 06:29:00,-18.8,-36.2,30.86,West,270,1.0,2.0,39,0.00,,,0.00,meteohub,2013-01-15 13:29:00,
2013-01-15 06:34:00,-18.6,-36.0,30.86,West,270,1.0,2.0,39,0.00,,,0.00,meteohub,2013-01-15 13:34:00,
2013-01-15 06:39:00,-18.4,-35.9,30.87,West,270,0.0,1.0,39,0.00,,,0.00,meteohub,2013-01-15 13:39:00,
2013-01-15 06:45:00,-18.0,-35.5,30.87,NW,315,2.0,2.0,39,0.00,,,0.00,meteohub,2013-01-15 13:45:00,
2013-01-15 06:50:00,-17.7,-35.1,30.87,North,0,2.0,2.0,39,0.00,,,0.00,meteohub,2013-01-15 13:50:00,
2013-01-15 06:55:00,-17.3,-34.8,30.87,North,0,1.0,2.0,39,0.00,,,0.00,meteohub,2013-01-15 13:55:00,
2013-01-15 07:00:00,-17.1,-34.6,30.87,North,0,0.0,2.0,39,0.00,,,0.00,meteohub,2013-01-15 14:00:00,
2013-01-15 07:05:00,-17.1,-34.6,30.88,North,0,0.0,2.0,39,0.00,,,0.00,meteohub,2013-01-15 14:05:00,
2013-01-15 07:10:00,-16.2,-31.7,30.88,NW,315,1.0,2.0,44,0.00,,,0.00,meteohub,2013-01-15 14:10:00,
2013-01-15 07:15:00,-16.1,-31.5,30.88,NW,315,0.0,2.0,44,0.00,,,0.00,meteohub,2013-01-15 14:15:00,
2013-01-15 07:20:00,-15.7,-31.2,30.88,NW,315,0.0,2.0,44,0.00,,,0.00,meteohub,2013-01-15 14:20:00,
2013-01-15 07:25:00,-15.3,-30.8,30.89,NE,45,2.0,2.0,44,0.00,,,0.00,meteohub,2013-01-15 14:25:00,
2013-01-15 07:30:00,-15.0,-30.5,30.88,NE,45,2.0,2.0,44,0.00,,,0.00,meteohub,2013-01-15 14:30:00,
2013-01-15 07:35:00,-14.8,-30.8,30.88,SE,135,0.0,2.0,43,0.00,,,0.00,meteohub,2013-01-15 14:35:00,
2013-01-15 07:40:00,-14.4,-30.5,30.88,SSE,158,1.0,2.0,43,0.00,,,0.00,meteohub,2013-01-15 14:40:00,
2013-01-15 07:45:00,-14.3,-30.3,30.89,SE,135,1.0,2.0,43,0.00,,,0.00,meteohub,2013-01-15 14:45:00,
2013-01-15 07:50:00,-13.7,-29.4,30.89,NE,45,1.0,2.0,44,0.00,,,0.00,meteohub,2013-01-15 14:50:00,
2013-01-15 07:55:00,-13.2,-28.8,30.89,North,0,2.0,2.0,44,0.00,,,0.00,meteohub,2013-01-15 14:55:00,
2013-01-15 08:00:00,-12.8,-29.0,30.89,North,0,1.0,2.0,43,0.00,,,0.00,meteohub,2013-01-15 15:00:00,
2013-01-15 08:05:00,-12.6,-28.8,30.90,East,90,2.0,2.0,43,0.00,,,0.00,meteohub,2013-01-15 15:05:00,
2013-01-15 08:10:00,-12.3,-28.5,30.90,SE,135,2.0,2.0,43,0.00,,,0.00,meteohub,2013-01-15 15:10:00,
2013-01-15 08:15:00,-12.1,-28.3,30.90,SE,135,2.0,2.0,43,0.00,,,0.00,meteohub,2013-01-15 15:15:00,
2013-01-15 08:20:00,-11.7,-27.6,30.90,SE,135,0.0,2.0,44,0.00,,,0.00,meteohub,2013-01-15 15:20:00,
2013-01-15 08:25:00,-11.4,-27.2,30.90,North,0,2.0,2.0,44,0.00,,,0.00,meteohub,2013-01-15 15:25:00,
2013-01-15 08:30:00,-11.2,-27.4,30.90,North,0,1.0,2.0,43,0.00,,,0.00,meteohub,2013-01-15 15:30:00,
2013-01-15 08:35:00,-11.0,-27.2,30.90,North,0,2.0,2.0,43,0.00,,,0.00,meteohub,2013-01-15 15:35:00,
2013-01-15 08:40:00,-10.8,-27.2,30.91,North,0,1.0,2.0,43,0.00,,,0.00,meteohub,2013-01-15 15:40:00,
2013-01-15 08:45:00,-10.3,-26.7,30.91,North,0,2.0,2.0,43,0.00,,,0.00,meteohub,2013-01-15 15:45:00,
2013-01-15 08:50:00,-10.1,-26.5,30.91,North,0,2.0,2.0,43,0.00,,,0.00,meteohub,2013-01-15 15:50:00,
2013-01-15 08:55:00,-9.8,-26.1,30.91,North,0,2.0,3.0,43,0.00,,,0.00,meteohub,2013-01-15 15:55:00,
2013-01-15 09:00:00,-9.6,-26.0,30.91,NW,315,2.0,3.0,43,0.00,,,0.00,meteohub,2013-01-15 16:00:00,
2013-01-15 09:05:00,-9.6,-26.0,30.91,NW,315,2.0,3.0,43,0.00,,,0.00,meteohub,2013-01-15 16:05:00,
2013-01-15 09:10:00,-8.9,-25.8,30.91,North,0,2.0,2.0,42,0.00,,,0.00,meteohub,2013-01-15 16:10:00,
2013-01-15 09:15:00,-8.5,-25.4,30.91,North,0,1.0,2.0,42,0.00,,,0.00,meteohub,2013-01-15 16:15:00,
2013-01-15 09:20:00,-8.0,-24.9,30.91,South,180,2.0,2.0,42,0.00,,,0.00,meteohub,2013-01-15 16:20:00,
2013-01-15 09:25:00,-7.8,-24.7,30.91,South,180,1.0,2.0,42,0.00,,,0.00,meteohub,2013-01-15 16:25:00,
2013-01-15 09:30:00,-7.2,-22.5,30.91,South,180,2.0,2.0,46,0.00,,,0.00,meteohub,2013-01-15 16:30:00,
2013-01-15 09:35:00,-6.5,-21.5,30.91,SW,225,1.0,2.0,47,0.00,,,0.00,meteohub,2013-01-15 16:35:00,
2013-01-15 09:40:00,-6.2,-21.1,30.92,West,270,2.0,2.0,47,0.00,,,0.00,meteohub,2013-01-15 16:40:00,
2013-01-15 09:45:00,-5.6,-21.1,30.92,North,0,3.0,3.0,46,0.00,,,0.00,meteohub,2013-01-15 16:45:00,
2013-01-15 09:50:00,-5.4,-21.3,30.92,North,0,2.0,3.0,45,0.00,,,0.00,meteohub,2013-01-15 16:50:00,
2013-01-15 09:55:00,-5.3,-21.1,30.92,NE,45,1.0,3.0,45,0.00,,,0.00,meteohub,2013-01-15 16:55:00,
2013-01-15 10:00:00,-4.9,-20.7,30.91,SE,135,2.0,3.0,45,0.00,,,0.00,meteohub,2013-01-15 17:00:00,
2013-01-15 10:05:00,-4.2,-20.2,30.92,South,180,1.0,2.0,45,0.00,,,0.00,meteohub,2013-01-15 17:05:00,
2013-01-15 10:10:00,-3.6,-19.7,30.92,SW,225,2.0,2.0,45,0.00,,,0.00,meteohub,2013-01-15 17:10:00,
2013-01-15 10:15:00,-3.1,-19.1,30.92,South,180,2.0,3.0,45,0.00,,,0.00,meteohub,2013-01-15 17:15:00,
2013-01-15 10:20:00,-2.7,-19.3,30.92,SE,135,2.0,3.0,44,0.00,,,0.00,meteohub,2013-01-15 17:20:00,
2013-01-15 10:25:00,-2.6,-19.1,30.92,SE,135,1.0,3.0,44,0.00,,,0.00,meteohub,2013-01-15 17:25:00,
2013-01-15 10:30:00,-2.4,-18.9,30.92,SE,135,1.0,2.0,44,0.00,,,0.00,meteohub,2013-01-15 17:30:00,
2013-01-15 10:35:00,-1.8,-18.9,30.92,NW,315,3.0,3.0,43,0.00,,,0.00,meteohub,2013-01-15 17:35:00,
2013-01-15 10:40:00,-1.8,-19.3,30.92,North,0,2.0,3.0,42,0.00,,,0.00,meteohub,2013-01-15 17:40:00,
2013-01-15 10:45:00,-1.8,-19.8,30.92,NW,315,3.0,3.0,41,0.00,,,0.00,meteohub,2013-01-15 17:45:00,
2013-01-15 10:50:00,-1.5,-19.5,30.92,NW,315,2.0,3.0,41,0.00,,,0.00,meteohub,2013-01-15 17:50:00,
2013-01-15 10:55:00,-1.3,-19.3,30.91,NNW,338,4.0,4.0,41,0.00,,,0.00,meteohub,2013-01-15 17:55:00,
2013-01-15 11:00:00,-1.3,-19.3,30.91,West,270,2.0,4.0,41,0.00,,,0.00,meteohub,2013-01-15 18:00:00,
2013-01-15 11:05:00,-1.3,-19.3,30.90,West,270,2.0,4.0,41,0.00,,,0.00,meteohub,2013-01-15 18:05:00,
2013-01-15 11:10:00,-0.4,-18.9,30.90,North,0,2.0,4.0,40,0.00,,,0.00,meteohub,2013-01-15 18:10:00,
2013-01-15 11:15:00,0.1,-18.4,30.90,North,0,2.0,3.0,40,0.00,,,0.00,meteohub,2013-01-15 18:15:00,
2013-01-15 11:20:00,0.7,-18.0,30.90,West,270,2.0,3.0,40,0.00,,,0.00,meteohub,2013-01-15 18:20:00,
2013-01-15 11:25:00,1.0,-17.7,30.90,West,270,2.0,3.0,40,0.00,,,0.00,meteohub,2013-01-15 18:25:00,
2013-01-15 11:31:00,1.6,-15.3,30.90,NE,45,1.0,3.0,44,0.00,,,0.00,meteohub,2013-01-15 18:31:00,
2013-01-15 11:36:00,2.3,-15.2,30.90,North,0,2.0,3.0,43,0.00,,,0.00,meteohub,2013-01-15 18:36:00,
2013-01-15 11:41:00,2.5,-15.0,30.90,West,270,4.0,4.0,43,0.00,,,0.00,meteohub,2013-01-15 18:41:00,
2013-01-15 11:46:00,2.1,-15.7,30.90,North,0,3.0,4.0,42,0.00,,,0.00,meteohub,2013-01-15 18:46:00,
2013-01-15 11:51:00,1.9,-15.9,30.90,NW,315,3.0,4.0,42,0.00,,,0.00,meteohub,2013-01-15 18:51:00,
2013-01-15 11:56:00,1.9,-15.9,30.90,North,0,4.0,5.0,42,0.00,,,0.00,meteohub,2013-01-15 18:56:00,
2013-01-15 12:01:00,2.1,-15.7,30.90,NW,315,3.0,6.0,42,0.00,,,0.00,meteohub,2013-01-15 19:01:00,
2013-01-15 12:06:00,2.5,-15.3,30.90,NW,315,4.0,6.0,42,0.00,,,0.00,meteohub,2013-01-15 19:06:00,
2013-01-15 12:11:00,2.8,-15.0,30.90,NNW,338,6.0,6.0,42,0.00,,,0.00,meteohub,2013-01-15 19:11:00,
2013-01-15 12:16:00,3.0,-15.3,30.90,NW,315,5.0,7.0,41,0.00,,,0.00,meteohub,2013-01-15 19:16:00,
2013-01-15 12:21:00,3.2,-15.7,30.90,North,0,9.0,9.0,40,0.00,,,0.00,meteohub,2013-01-15 19:21:00,
2013-01-15 12:26:00,3.0,-15.9,30.90,North,0,7.0,9.0,40,0.00,,,0.00,meteohub,2013-01-15 19:26:00,
2013-01-15 12:31:00,2.8,-16.1,30.90,NW,315,5.0,11.0,40,0.00,,,0.00,meteohub,2013-01-15 19:31:00,
2013-01-15 12:36:00,2.7,-16.2,30.90,North,0,9.0,11.0,40,0.00,,,0.00,meteohub,2013-01-15 19:36:00,
2013-01-15 12:41:00,2.5,-16.4,30.90,WNW,293,7.0,11.0,40,0.00,,,0.00,meteohub,2013-01-15 19:41:00,
2013-01-15 12:46:00,2.5,-15.9,30.90,West,270,6.0,11.0,41,0.00,,,0.00,meteohub,2013-01-15 19:46:00,
2013-01-15 12:51:00,2.1,-16.2,30.90,SW,225,4.0,9.0,41,0.00,,,0.00,meteohub,2013-01-15 19:51:00,
2013-01-15 12:56:00,1.9,-15.9,30.90,North,0,8.0,9.0,42,0.00,,,0.00,meteohub,2013-01-15 19:56:00,
2013-01-15 13:01:00,1.8,-16.6,30.90,North,0,9.0,11.0,41,0.00,,,0.00,meteohub,2013-01-15 20:01:00,
2013-01-15 13:06:00,1.8,-16.6,30.90,North,0,9.0,11.0,41,0.00,,,0.00,meteohub,2013-01-15 20:06:00,
2013-01-15 13:11:00,1.0,-18.6,30.91,North,0,7.0,11.0,38,0.00,,,0.00,meteohub,2013-01-15 20:11:00,
2013-01-15 13:16:00,1.4,-16.4,30.91,North,0,9.0,9.0,42,0.00,,,0.00,meteohub,2013-01-15 20:16:00,
2013-01-15 13:21:00,1.2,-18.4,30.91,NNW,338,5.0,9.0,38,0.00,,,0.00,meteohub,2013-01-15 20:21:00,
2013-01-15 13:26:00,1.2,-18.4,30.91,NW,315,9.0,9.0,38,0.00,,,0.00,meteohub,2013-01-15 20:26:00,
2013-01-15 13:31:00,1.2,-18.4,30.91,North,0,8.0,11.0,38,0.00,,,0.00,meteohub,2013-01-15 20:31:00,
2013-01-15 13:36:00,1.4,-16.4,30.91,NW,315,6.0,11.0,42,0.00,,,0.00,meteohub,2013-01-15 20:36:00,
2013-01-15 13:41:00,1.6,-16.2,30.91,North,0,7.0,11.0,42,0.00,,,0.00,meteohub,2013-01-15 20:41:00,
2013-01-15 13:46:00,1.8,-16.1,30.91,NW,315,8.0,9.0,42,0.00,,,0.00,meteohub,2013-01-15 20:46:00,
2013-01-15 13:51:00,1.8,-16.1,30.91,North,0,6.0,8.0,42,0.00,,,0.00,meteohub,2013-01-15 20:51:00,
2013-01-15 13:56:00,1.9,-15.3,30.91,NW,315,5.0,8.0,43,0.00,,,0.00,meteohub,2013-01-15 20:56:00,
2013-01-15 14:01:00,1.9,-15.3,30.92,North,0,5.0,8.0,43,0.00,,,0.00,meteohub,2013-01-15 21:01:00,
2013-01-15 14:06:00,2.1,-15.3,30.92,NNW,338,6.0,7.0,43,0.00,,,0.00,meteohub,2013-01-15 21:06:00,
2013-01-15 14:11:00,2.3,-15.2,30.91,NW,315,5.0,7.0,43,0.00,,,0.00,meteohub,2013-01-15 21:11:00,
2013-01-15 14:16:00,2.7,-14.3,30.92,North,0,5.0,7.0,44,0.00,,,0.00,meteohub,2013-01-15 21:16:00,
2013-01-15 14:21:00,2.8,-14.1,30.91,NW,315,5.0,7.0,44,0.00,,,0.00,meteohub,2013-01-15 21:21:00,
2013-01-15 14:26:00,2.7,-14.3,30.92,North,0,4.0,7.0,44,0.00,,,0.00,meteohub,2013-01-15 21:26:00,
2013-01-15 14:31:00,2.8,-13.7,30.92,North,0,4.0,6.0,45,0.00,,,0.00,meteohub,2013-01-15 21:31:00,
2013-01-15 14:36:00,2.8,-13.7,30.92,NW,315,4.0,7.0,45,0.00,,,0.00,meteohub,2013-01-15 21:36:00,
2013-01-15 14:41:00,2.8,-13.7,30.92,North,0,3.0,8.0,45,0.00,,,0.00,meteohub,2013-01-15 21:41:00,
2013-01-15 14:46:00,2.8,-13.7,30.93,North,0,5.0,8.0,45,0.00,,,0.00,meteohub,2013-01-15 21:46:00,
2013-01-15 14:51:00,2.7,-13.9,30.93,North,0,4.0,7.0,45,0.00,,,0.00,meteohub,2013-01-15 21:51:00,
2013-01-15 14:56:00,2.5,-13.5,30.93,North,0,5.0,7.0,46,0.00,,,0.00,meteohub,2013-01-15 21:56:00,
2013-01-15 15:01:00,2.5,-13.5,30.93,North,0,4.0,7.0,46,0.00,,,0.00,meteohub,2013-01-15 22:01:00,
2013-01-15 15:06:00,2.5,-13.5,30.93,North,0,4.0,7.0,46,0.00,,,0.00,meteohub,2013-01-15 22:06:00,
2013-01-15 15:11:00,2.3,-13.7,30.94,North,0,4.0,7.0,46,0.00,,,0.00,meteohub,2013-01-15 22:11:00,
2013-01-15 15:16:00,2.5,-13.2,30.94,NE,45,4.0,4.0,47,0.00,,,0.00,meteohub,2013-01-15 22:16:00,
2013-01-15 15:21:00,2.3,-13.4,30.94,North,0,4.0,4.0,47,0.00,,,0.00,meteohub,2013-01-15 22:21:00,
2013-01-15 15:26:00,2.3,-13.4,30.95,North,0,4.0,5.0,47,0.00,,,0.00,meteohub,2013-01-15 22:26:00,
2013-01-15 15:31:00,2.1,-13.5,30.95,NE,45,5.0,5.0,47,0.00,,,0.00,meteohub,2013-01-15 22:31:00,
2013-01-15 15:36:00,1.8,-13.9,30.95,NW,315,5.0,5.0,47,0.00,,,0.00,meteohub,2013-01-15 22:36:00,
2013-01-15 15:42:00,1.6,-14.1,30.95,NE,45,5.0,5.0,47,0.00,,,0.00,meteohub,2013-01-15 22:42:00,
2013-01-15 15:47:00,1.6,-13.5,30.95,NW,315,2.0,5.0,48,0.00,,,0.00,meteohub,2013-01-15 22:47:00,
2013-01-15 15:52:00,1.6,-13.5,30.95,NW,315,4.0,5.0,48,0.00,,,0.00,meteohub,2013-01-15 22:52:00,
2013-01-15 15:57:00,1.8,-13.4,30.95,NW,315,2.0,5.0,48,0.00,,,0.00,meteohub,2013-01-15 22:57:00,
2013-01-15 16:02:00,1.8,-13.4,30.96,NE,45,2.0,4.0,48,0.00,,,0.00,meteohub,2013-01-15 23:02:00,
2013-01-15 16:07:00,1.9,-12.8,30.95,North,0,1.0,4.0,49,0.00,,,0.00,meteohub,2013-01-15 23:07:00,
2013-01-15 16:12:00,2.1,-12.6,30.95,South,180,2.0,2.0,49,0.00,,,0.00,meteohub,2013-01-15 23:12:00,
2013-01-15 16:17:00,2.3,-12.5,30.96,South,180,1.0,2.0,49,0.00,,,0.00,meteohub,2013-01-15 23:17:00,
2013-01-15 16:22:00,2.3,-12.5,30.95,South,180,2.0,2.0,49,0.00,,,0.00,meteohub,2013-01-15 23:22:00,
2013-01-15 16:27:00,2.5,-12.3,30.95,South,180,2.0,2.0,49,0.00,,,0.00,meteohub,2013-01-15 23:27:00,
2013-01-15 16:32:00,2.5,-12.3,30.96,South,180,2.0,2.0,49,0.00,,,0.00,meteohub,2013-01-15 23:32:00,
2013-01-15 16:37:00,2.3,-12.5,30.96,SW,225,0.0,2.0,49,0.00,,,0.00,meteohub,2013-01-15 23:37:00,
2013-01-15 16:42:00,2.3,-12.5,30.96,SW,225,1.0,2.0,49,0.00,,,0.00,meteohub,2013-01-15 23:42:00,
2013-01-15 16:47:00,2.3,-12.5,30.96,SW,225,0.0,2.0,49,0.00,,,0.00,meteohub,2013-01-15 23:47:00,
2013-01-15 16:52:00,2.3,-12.5,30.96,SW,225,0.0,1.0,49,0.00,,,0.00,meteohub,2013-01-15 23:52:00,
2013-01-15 16:57:00,2.1,-12.6,30.96,SE,135,1.0,2.0,49,0.00,,,0.00,meteohub,2013-01-15 23:57:00,
2013-01-15 17:02:00,2.1,-12.6,30.96,SE,135,0.0,2.0,49,0.00,,,0.00,meteohub,2013-01-16 00:02:00,
2013-01-15 17:07:00,2.1,-12.6,30.96,SE,135,0.0,1.0,49,0.00,,,0.00,meteohub,2013-01-16 00:07:00,
2013-01-15 17:12:00,1.8,-12.6,30.96,SE,135,2.0,2.0,50,0.00,,,0.00,meteohub,2013-01-16 00:12:00,
2013-01-15 17:17:00,1.6,-12.8,30.96,SE,135,1.0,2.0,50,0.00,,,0.00,meteohub,2013-01-16 00:17:00,
2013-01-15 17:22:00,1.4,-13.0,30.96,SE,135,2.0,2.0,50,0.00,,,0.00,meteohub,2013-01-16 00:22:00,
2013-01-15 17:27:00,1.4,-13.0,30.96,SE,135,2.0,2.0,50,0.00,,,0.00,meteohub,2013-01-16 00:27:00,
2013-01-15 17:33:00,1.6,-12.3,30.96,East,90,3.0,3.0,51,0.00,,,0.00,meteohub,2013-01-16 00:33:00,
2013-01-15 17:38:00,1.8,-12.3,30.96,SE,135,2.0,2.0,51,0.00,,,0.00,meteohub,2013-01-16 00:38:00,
2013-01-15 17:43:00,1.8,-12.3,30.97,SE,135,1.0,3.0,51,0.00,,,0.00,meteohub,2013-01-16 00:43:00,
2013-01-15 17:48:00,1.9,-11.6,30.97,South,180,0.0,3.0,52,0.00,,,0.00,meteohub,2013-01-16 00:48:00,
2013-01-15 17:53:00,1.9,-11.6,30.96,NNW,338,2.0,2.0,52,0.00,,,0.00,meteohub,2013-01-16 00:53:00,
2013-01-15 17:58:00,1.9,-11.6,30.97,West,270,1.0,2.0,52,0.00,,,0.00,meteohub,2013-01-16 00:58:00,
2013-01-15 18:03:00,2.1,-11.6,30.96,North,0,1.0,2.0,52,0.00,,,0.00,meteohub,2013-01-16 01:03:00,
2013-01-15 18:08:00,2.1,-11.6,30.97,North,0,1.0,2.0,52,0.00,,,0.00,meteohub,2013-01-16 01:08:00,
2013-01-15 18:13:00,2.1,-11.6,30.97,North,0,2.0,2.0,52,0.00,,,0.00,meteohub,2013-01-16 01:13:00,
2013-01-15 18:18:00,2.1,-11.6,30.97,North,0,2.0,2.0,52,0.00,,,0.00,meteohub,2013-01-16 01:18:00,
2013-01-15 18:23:00,2.1,-11.0,30.97,NW,315,2.0,2.0,53,0.00,,,0.00,meteohub,2013-01-16 01:23:00,
2013-01-15 18:28:00,1.9,-11.2,30.97,North,0,2.0,3.0,53,0.00,,,0.00,meteohub,2013-01-16 01:28:00,
2013-01-15 18:33:00,1.9,-11.2,30.98,North,0,2.0,3.0,53,0.00,,,0.00,meteohub,2013-01-16 01:33:00,
2013-01-15 18:38:00,1.8,-11.4,30.98,North,0,4.0,4.0,53,0.00,,,0.00,meteohub,2013-01-16 01:38:00,
2013-01-15 18:43:00,1.4,-11.7,30.99,North,0,4.0,7.0,53,0.00,,,0.00,meteohub,2013-01-16 01:43:00,
2013-01-15 18:48:00,1.2,-13.5,30.99,North,0,4.0,7.0,49,0.00,,,0.00,meteohub,2013-01-16 01:48:00,
2013-01-15 18:53:00,0.7,-14.1,31.00,North,0,4.0,7.0,49,0.00,,,0.00,meteohub,2013-01-16 01:53:00,
2013-01-15 18:58:00,0.5,-14.1,31.00,North,0,3.0,6.0,49,0.00,,,0.00,meteohub,2013-01-16 01:58:00,
2013-01-15 19:03:00,0.5,-14.1,31.00,NNW,338,4.0,7.0,49,0.00,,,0.00,meteohub,2013-01-16 02:03:00,
2013-01-15 19:08:00,0.1,-14.4,31.00,North,0,5.0,7.0,49,0.00,,,0.00,meteohub,2013-01-16 02:08:00,
2013-01-15 19:13:00,-0.2,-14.8,31.00,NW,315,3.0,5.0,49,0.00,,,0.00,meteohub,2013-01-16 02:13:00,
2013-01-15 19:18:00,-0.4,-15.0,31.00,North,0,4.0,7.0,49,0.00,,,0.00,meteohub,2013-01-16 02:18:00,
2013-01-15 19:23:00,-0.6,-14.8,31.00,NE,45,4.0,7.0,50,0.00,,,0.00,meteohub,2013-01-16 02:23:00,
2013-01-15 19:28:00,-0.9,-15.2,31.00,NW,315,4.0,7.0,50,0.00,,,0.00,meteohub,2013-01-16 02:28:00,
2013-01-15 19:33:00,-0.9,-15.2,31.01,NW,315,2.0,6.0,50,0.00,,,0.00,meteohub,2013-01-16 02:33:00,
2013-01-15 19:38:00,-1.1,-15.3,31.01,North,0,2.0,5.0,50,0.00,,,0.00,meteohub,2013-01-16 02:38:00,
2013-01-15 19:43:00,-1.1,-15.3,31.00,NW,315,4.0,5.0,50,0.00,,,0.00,meteohub,2013-01-16 02:43:00,
2013-01-15 19:48:00,-1.1,-15.3,31.00,North,0,2.0,4.0,50,0.00,,,0.00,meteohub,2013-01-16 02:48:00,
2013-01-15 19:53:00,-1.3,-15.5,31.01,North,0,1.0,4.0,50,0.00,,,0.00,meteohub,2013-01-16 02:53:00,
2013-01-15 19:58:00,-1.3,-15.5,31.01,NE,45,2.0,4.0,50,0.00,,,0.00,meteohub,2013-01-16 02:58:00,
2013-01-15 20:03:00,-1.3,-15.5,31.01,SE,135,2.0,2.0,50,0.00,,,0.00,meteohub,2013-01-16 03:03:00,
2013-01-15 20:08:00,-1.3,-15.5,31.01,East,90,2.0,2.0,50,0.00,,,0.00,meteohub,2013-01-16 03:08:00,
2013-01-15 20:13:00,-1.3,-15.5,31.01,East,90,2.0,2.0,50,0.00,,,0.00,meteohub,2013-01-16 03:13:00,
2013-01-15 20:18:00,-1.1,-15.3,31.01,NE,45,3.0,3.0,50,0.00,,,0.00,meteohub,2013-01-16 03:18:00,
2013-01-15 20:23:00,-0.9,-15.2,31.01,East,90,2.0,2.0,50,0.00,,,0.00,meteohub,2013-01-16 03:23:00,
2013-01-15 20:28:00,-0.8,-15.0,31.01,East,90,2.0,3.0,50,0.00,,,0.00,meteohub,2013-01-16 03:28:00,
2013-01-15 20:33:00,-0.6,-14.8,31.01,SW,225,1.0,3.0,50,0.00,,,0.00,meteohub,2013-01-16 03:33:00,
2013-01-15 20:38:00,-0.4,-15.0,31.01,SW,225,0.0,2.0,49,0.00,,,0.00,meteohub,2013-01-16 03:38:00,
2013-01-15 20:43:00,-0.4,-15.0,31.01,SW,225,0.0,2.0,49,0.00,,,0.00,meteohub,2013-01-16 03:43:00,
2013-01-15 20:48:00,-0.4,-15.0,31.01,SW,225,2.0,2.0,49,0.00,,,0.00,meteohub,2013-01-16 03:48:00,
2013-01-15 20:54:00,-0.2,-14.8,31.01,South,180,1.0,2.0,49,0.00,,,0.00,meteohub,2013-01-16 03:54:00,
2013-01-15 20:59:00,-0.2,-14.8,31.01,South,180,1.0,2.0,49,0.00,,,0.00,meteohub,2013-01-16 03:59:00,
2013-01-15 21:04:00,-0.2,-14.8,31.01,South,180,0.0,2.0,49,0.00,,,0.00,meteohub,2013-01-16 04:04:00,
2013-01-15 21:09:00,0.0,-14.3,31.02,NE,45,1.0,2.0,50,0.00,,,0.00,meteohub,2013-01-16 04:09:00,
2013-01-15 21:14:00,0.0,-14.3,31.01,North,0,2.0,2.0,50,0.00,,,0.00,meteohub,2013-01-16 04:14:00,
2013-01-15 21:19:00,0.1,-14.1,31.02,North,0,2.0,2.0,50,0.00,,,0.00,meteohub,2013-01-16 04:19:00,
2013-01-15 21:24:00,0.3,-13.9,31.02,North,0,2.0,2.0,50,0.00,,,0.00,meteohub,2013-01-16 04:24:00,
2013-01-15 21:29:00,0.7,-13.5,31.02,NE,45,2.0,2.0,50,0.00,,,0.00,meteohub,2013-01-16 04:29:00,
2013-01-15 21:34:00,0.9,-13.4,31.02,East,90,2.0,2.0,50,0.00,,,0.00,meteohub,2013-01-16 04:34:00,
2013-01-15 21:39:00,1.2,-13.2,31.01,NE,45,3.0,3.0,50,0.00,,,0.00,meteohub,2013-01-16 04:39:00,
2013-01-15 21:44:00,1.4,-11.0,31.01,NE,45,2.0,4.0,55,0.00,,,0.00,meteohub,2013-01-16 04:44:00,
2013-01-15 21:49:00,1.8,-10.7,31.02,SW,225,0.0,4.0,55,0.00,,,0.00,meteohub,2013-01-16 04:49:00,
2013-01-15 21:54:00,1.8,-10.7,31.02,South,180,2.0,4.0,55,0.00,,,0.00,meteohub,2013-01-16 04:54:00,
2013-01-15 21:59:00,1.8,-11.0,31.02,South,180,2.0,3.0,54,0.00,,,0.00,meteohub,2013-01-16 04:59:00,
2013-01-15 22:00:00,1.8,-11.0,31.02,South,180,1.0,3.0,54,0.00,,,0.00,meteohub,2013-01-16 05:00:00,
2013-01-15 22:02:00,1.6,-11.2,31.02,West,270,1.0,2.0,54,0.00,,,0.00,meteohub,2013-01-16 05:02:00,
2013-01-15 22:03:00,1.6,-11.2,31.02,West,270,1.0,2.0,54,0.00,,,0.00,meteohub,2013-01-16 05:03:00,
2013-01-15 22:08:00,1.6,-11.2,31.01,West,270,1.0,2.0,54,0.00,,,0.00,meteohub,2013-01-16 05:08:00,
2013-01-15 22:13:00,1.6,-11.2,31.03,North,0,2.0,2.0,54,0.00,,,0.00,meteohub,2013-01-16 05:13:00,
2013-01-15 22:18:00,1.6,-11.2,31.03,North,0,1.0,2.0,54,0.00,,,0.00,meteohub,2013-01-16 05:18:00,
2013-01-15 22:23:00,1.6,-11.2,31.03,North,0,2.0,2.0,54,0.00,,,0.00,meteohub,2013-01-16 05:23:00,
2013-01-15 22:28:00,1.6,-11.2,31.03,NE,45,3.0,3.0,54,0.00,,,0.00,meteohub,2013-01-16 05:28:00,
2013-01-15 22:33:00,1.8,-10.7,31.03,North,0,3.0,3.0,55,0.00,,,0.00,meteohub,2013-01-16 05:33:00,
2013-01-15 22:38:00,1.8,-10.7,31.04,NE,45,2.0,3.0,55,0.00,,,0.00,meteohub,2013-01-16 05:38:00,
2013-01-15 22:43:00,1.8,-10.7,31.03,NE,45,2.0,3.0,55,0.00,,,0.00,meteohub,2013-01-16 05:43:00,
2013-01-15 22:49:00,1.8,-10.7,31.03,NE,45,0.0,3.0,55,0.00,,,0.00,meteohub,2013-01-16 05:49:00,
2013-01-15 22:53:00,1.9,-10.5,31.04,North,0,2.0,2.0,55,0.00,,,0.00,meteohub,2013-01-16 05:53:00,
2013-01-15 22:59:00,1.9,-10.5,31.04,NW,315,2.0,2.0,55,0.00,,,0.00,meteohub,2013-01-16 05:59:00,
2013-01-15 23:04:00,1.9,-10.5,31.04,NW,315,2.0,2.0,55,0.00,,,0.00,meteohub,2013-01-16 06:04:00,
2013-01-15 23:09:00,1.9,-10.5,31.04,North,0,2.0,2.0,55,0.00,,,0.00,meteohub,2013-01-16 06:09:00,
2013-01-15 23:14:00,1.9,-10.5,31.04,North,0,3.0,3.0,55,0.00,,,0.00,meteohub,2013-01-16 06:14:00,
2013-01-15 23:19:00,1.8,-10.7,31.04,NW,315,1.0,3.0,55,0.00,,,0.00,meteohub,2013-01-16 06:19:00,
2013-01-15 23:24:00,1.9,-10.5,31.04,SW,225,2.0,3.0,55,0.00,,,0.00,meteohub,2013-01-16 06:24:00,
2013-01-15 23:29:00,1.9,-10.5,31.04,North,0,2.0,3.0,55,0.00,,,0.00,meteohub,2013-01-16 06:29:00,
2013-01-15 23:34:00,1.9,-10.5,31.04,North,0,2.0,4.0,55,0.00,,,0.00,meteohub,2013-01-16 06:34:00,
2013-01-15 23:39:00,1.9,-10.5,31.04,NW,315,2.0,4.0,55,0.00,,,0.00,meteohub,2013-01-16 06:39:00,
2013-01-15 23:44:00,1.9,-10.5,31.03,North,0,1.0,4.0,55,0.00,,,0.00,meteohub,2013-01-16 06:44:00,
2013-01-15 23:49:00,2.1,-10.3,31.04,North,0,1.0,3.0,55,0.00,,,0.00,meteohub,2013-01-16 06:49:00,
2013-01-15 23:54:00,2.1,-10.3,31.03,SE,135,0.0,2.0,55,0.00,,,0.00,meteohub,2013-01-16 06:54:00,
2013-01-15 23:59:00,2.1,-10.3,31.04,South,180,1.0,2.0,55,0.00,,,0.00,meteohub,2013-01-16 06:59:00,